Miscellaneous Local Product
Issued by NWS North Platte, NE

Home | Current Version | Previous Version | Text Only | Print | Product List | Glossary On
Versions: 1 2 3 4 5 6 7 8 9 10 11 12 13 14 15 16 17 18 19 20 21 22 23 24 25 26 27 28 29 30 31 32 33 34 35 36 37 38 39 40 41 42 43 44 45 46 47 48 49 50
000
AXUS43 KLBF 040510
MISLBF


WESTERN AND NORTH CENTRAL NEBRASKA HOURLY WEATHER ROUNDUP
NATIONAL WEATHER SERVICE NORTH PLATTE NE
1200 AM CDT FRI SEP 04 2015

NOTE: "FAIR" INDICATES FEW OR NO CLOUDS BELOW 12,000 FEET WITH NO
SIGNIFICANT WEATHER AND/OR OBSTRUCTIONS TO VISIBILITY.

NOTE: STATIONS NOT REPORTING VARIABLES SUCH AS SKY/WEATHER OR
PRESSURE ARE PROVIDED BY THE NEBRASKA DEPARTMENT OF
ROADS...RAWS...AND APRS NETWORKS...AND ARE NOT UNDER
NATIONAL WEATHER SERVICE QUALITY CONTROL.

...OBSERVATIONS IN AND NEAR THE EASTERN PANHANDLE OF NEBRASKA...

CITY           SKY/WX    TMP DP  RH WIND       PRES   REMARKS
PINE RIDGE     LGT RAIN  75  50  41 W5        29.81F
CHADRON        CLOUDY    76  49  38 SW7       29.81F
ALLIANCE       CLOUDY    70  54  56 W10       29.87F
SIDNEY         CLOUDY    68  55  63 NE8       29.92F
CRESCENT LAKE    N/A     71  50  46 CALM        N/A
BIG SPRINGS      N/A     72  57  58 CALM        N/A
$$

...OBSERVATIONS IN NORTH CENTRAL NEBRASKA...

CITY           SKY/WX    TMP DP  RH WIND       PRES   REMARKS
VALENTINE      CLOUDY    77  55  46 E7        29.76F
THEDFORD       CLOUDY    73  60  63 SE3       29.79F
AINSWORTH      CLOUDY    76  64  65 S6        29.77F
O`NEILL        CLOUDY    79  67  66 SE12G17   29.77F
ORD            MOCLDY    79  63  57 SE7       29.78R
BROKEN BOW     CLOUDY    80  61  52 SE8       29.80S
SPRINGVIEW       N/A     73  67  83 CALM        N/A
SARGENT          N/A     75  64  69 CALM        N/A
CHAMBERS         N/A     76  65  70 S8          N/A
EWING            N/A     75  65  71 SE5         N/A
$$

...OBSERVATIONS IN SOUTHWEST NEBRASKA AND FAR NORTHEAST COLORADO...

CITY           SKY/WX    TMP DP  RH WIND       PRES   REMARKS
WRAY           CLOUDY    67  61  80 NW7       29.86F
HOLYOKE        LGT RAIN  70  59  68 N12       29.87F
IMPERIAL       CLOUDY    68  62  81 N10       29.83F
OGALLALA       RAIN      69  62  77 SW8       29.91R
NORTH PLATTE   LGT RAIN  80  61  52 S5        29.81R
MCCOOK         CLOUDY    84  59  42 W17G26    29.81R
LEXINGTON      CLOUDY    81  61  49 S13       29.79S
PAXTON           N/A     70  62  77 SW6         N/A
BRADY            N/A     77  64  63 CALM        N/A
CALLAWAY         N/A     73  65  77 S8          N/A
$$

...OBSERVATIONS IN CENTRAL LINCOLN COUNTY AREA...

CITY           SKY/WX    TMP DP  RH WIND       PRES   REMARKS
N.P. AIRPORT   LGT RAIN  80  61  52 S5        29.81R
N.P. DOWNTOWN    N/A     81  61  50 CALM        N/A
N.P. SOUTHEAST   N/A     80  60  50 SW3G17      N/A
N.P. HILLCREST   N/A     80  61  51 SW7G21      N/A
$$

...SOME OBSERVATIONS FROM AROUND THE REGION...

CITY           SKY/WX    TMP DP  RH WIND       PRES   REMARKS
DENVER         PTCLDY    60  54  80 SW8       30.00F
LARAMIE        CLEAR     47  32  56 S10       30.12S
CHEYENNE       CLEAR     55  46  71 W7        30.02F
SCOTTSBLUFF    CLOUDY    68  59  73 S5        29.89F
RAPID CITY     CLOUDY    73  52  47 SE9       29.78S
PIERRE         CLOUDY    77  70  79 SE9       29.68F
WINNER         FAIR      80  65  59 SE8       29.72F
SIOUX FALLS    MOCLDY    77  72  84 SE7       29.80F
OMAHA          PTCLDY    80  69  69 S14       29.85R
GRAND ISLAND   MOCLDY    77  64  64 S14       29.82R
KANSAS CITY    PTCLDY    74  67  78 S9        29.92S
WICHITA        MOCLDY    78  66  66 S13       29.88S
HAYS           MOCLDY    84  57  39 S16G22    29.82S
LIBERAL        PTCLDY    79  55  44 S16       29.90S
GOODLAND       MOCLDY    74  54  49 VRB3      29.86R
$$



USA.gov is the U.S. government's official web portal to all federal, state and local government web resources and services.